Location: Unspecified
(44.4377°N, 88.0525°W)
Time: 04:21:44
(UTC-05:00)

CZ-3 Stage 3 - Visible Passes

Search period start: 23 October 2014 00:00
Search period end: 02 November 2014 00:00
Orbit: 415 x 34824 km, 30.9° (Epoch: 21 October)

Date Brightness Start Highest point End Pass type
(mag) Time Alt. Az. Time Alt. Az. Time Alt. Az.
23 Oct 8.5 00:00:00 24° ESE 23:59:45 24° ESE 00:35:11 10° E visible
24 Oct 6.1 00:09:32 10° SSW 07:46:36 51° SSW 07:55:11 10° ESE visible
24 Oct 7.8 21:02:19 10° SSE 03:51:45 54° SSE 04:20:03 10° E visible
25 Oct 8.4 20:58:51 10° ESE 23:38:25 26° ESE 00:32:55 10° E visible
27 Oct 6.1 00:03:43 10° SSW 07:42:57 51° SSW 07:51:25 10° SE visible
27 Oct 7.8 20:49:42 10° SSE 03:48:46 55° SSE 04:16:25 10° E visible
28 Oct 8.4 20:42:08 10° ESE 23:34:24 28° ESE 00:30:18 10° E visible
29 Oct 6.0 23:57:56 10° SSW 07:39:08 50° SSW 07:47:32 10° SE visible
30 Oct 7.7 20:37:27 10° SSE 03:45:36 57° SSE 04:12:38 10° E visible
31 Oct 8.3 20:25:39 10° ESE 23:30:15 30° ESE 00:27:24 10° E visible
01 Nov 9.9 23:52:09 10° SSW 00:00:00 11° SSW 00:00:00 11° SSW visible
